Location: Capel Gartheli
(52.1833°N, 4.0667°W)
Time: 03:55:30
(UTC+00:00)

Meteor 2-3 Rocket - Pass Details

Date: 18 February 2020
Orbit: 842 x 885 km, 81.3° (Epoch: 09 April)

Event Time Altitude Azimuth Distance (km) Brightness Sun altitude
Rises 04:47:50 0° 347° (NNW) 3,461 6.9 -24.9°
Reaches altitude 10° 04:50:16 10° 348° (NNW) 2,526 6.2 -24.5°
Maximum altitude 04:56:02 84° 77° (ENE) 887 3.7 -23.7°
Drops below altitude 10° 05:01:50 10° 166° (SSE) 2,534 6.2 -22.8°
Sets 05:04:16 0° 167° (SSE) 3,472 6.9 -22.4°
